TimeCDT,TemperatureF,Dew PointF,Humidity,Sea Level PressureIn,VisibilityMPH,Wind Direction,Wind SpeedMPH,Gust SpeedMPH,PrecipitationIn,Events,Conditions,WindDirDegrees,DateUTC
12:15 AM,62.6,62.6,100,29.92,3.0,Calm,Calm,-,N/A,,Overcast,0,2013-05-17 05:15:00
12:35 AM,62.6,62.6,100,29.93,3.0,Calm,Calm,-,N/A,,Overcast,0,2013-05-17 05:35:00
12:55 AM,62.6,62.6,100,29.92,3.0,Calm,Calm,-,N/A,,Overcast,0,2013-05-17 05:55:00
1:15 AM,62.6,62.6,100,29.91,3.0,Calm,Calm,-,N/A,,Overcast,0,2013-05-17 06:15:00
1:35 AM,60.8,60.8,100,29.91,3.0,ESE,5.8,-,N/A,,Overcast,110,2013-05-17 06:35:00
1:55 AM,60.8,60.8,100,29.91,1.2,ESE,6.9,-,N/A,,Overcast,110,2013-05-17 06:55:00
2:15 AM,60.8,60.8,100,29.90,0.2,SE,5.8,-,N/A,Fog,Fog,140,2013-05-17 07:15:00
2:35 AM,60.8,60.8,100,29.90,1.8,SE,3.5,-,N/A,,Overcast,140,2013-05-17 07:35:00
2:55 AM,60.8,60.8,100,29.90,2.0,Calm,Calm,-,N/A,,Overcast,0,2013-05-17 07:55:00
3:15 AM,60.8,60.8,100,29.89,1.2,Calm,Calm,-,N/A,,Overcast,0,2013-05-17 08:15:00
3:35 AM,60.8,60.8,100,29.89,0.5,Calm,Calm,-,N/A,Fog,Fog,0,2013-05-17 08:35:00
3:55 AM,60.8,60.8,100,29.89,0.5,Calm,Calm,-,N/A,Fog,Fog,0,2013-05-17 08:55:00
4:15 AM,60.8,60.8,100,29.90,0.2,Calm,Calm,-,N/A,Fog,Fog,0,2013-05-17 09:15:00
4:35 AM,59.0,59.0,100,29.91,0.2,Calm,Calm,-,N/A,Fog,Fog,0,2013-05-17 09:35:00
4:55 AM,59.0,59.0,100,29.91,0.2,Calm,Calm,-,N/A,Fog,Fog,0,2013-05-17 09:55:00
5:15 AM,59.0,59.0,100,29.90,0.2,Calm,Calm,-,N/A,Fog,Fog,0,2013-05-17 10:15:00
5:35 AM,59.0,59.0,100,29.91,0.2,Calm,Calm,-,N/A,Fog,Fog,0,2013-05-17 10:35:00
5:55 AM,59.0,59.0,100,29.91,0.2,Calm,Calm,-,N/A,Fog,Fog,0,2013-05-17 10:55:00
6:15 AM,59.0,59.0,100,29.92,0.2,Calm,Calm,-,N/A,Fog,Fog,0,2013-05-17 11:15:00
6:35 AM,59.0,59.0,100,29.93,0.2,Calm,Calm,-,N/A,Fog,Fog,0,2013-05-17 11:35:00
7:45 AM,59.0,59.0,100,29.95,0.1,Calm,Calm,-,N/A,Fog,Fog,0,2013-05-17 12:45:00
8:45 AM,59.0,59.0,100,29.96,0.1,Calm,Calm,-,N/A,Fog,Fog,0,2013-05-17 13:45:00
9:45 AM,60.8,60.8,100,29.96,1.2,Calm,Calm,-,N/A,,Overcast,0,2013-05-17 14:45:00
10:05 AM,60.8,60.8,100,29.96,5.0,Calm,Calm,-,N/A,,Overcast,0,2013-05-17 15:05:00
10:45 AM,62.6,62.6,100,29.98,10.0,Calm,Calm,-,N/A,,Overcast,0,2013-05-17 15:45:00
11:51 AM,64.4,62.6,94,29.98,10.0,NE,4.6,-,N/A,,Overcast,50,2013-05-17 16:51:00
12:53 PM,66.2,62.6,88,29.97,10.0,North,6.9,-,N/A,,Mostly Cloudy,360,2013-05-17 17:53:00
2:50 PM,71.6,60.8,69,29.95,10.0,South,4.6,-,N/A,,Mostly Cloudy,180,2013-05-17 19:50:00
3:45 PM,75.2,60.8,61,29.94,10.0,ESE,4.6,-,N/A,,Mostly Cloudy,120,2013-05-17 20:45:00
4:51 PM,77.0,60.8,57,29.93,10.0,South,3.5,-,N/A,,Scattered Clouds,170,2013-05-17 21:51:00
5:52 PM,77.0,60.8,57,29.93,10.0,Calm,Calm,-,N/A,,Scattered Clouds,0,2013-05-17 22:52:00
6:53 PM,75.2,62.6,65,29.92,10.0,East,4.6,-,N/A,,Partly Cloudy,100,2013-05-17 23:53:00
7:51 PM,71.6,62.6,73,29.93,10.0,ESE,5.8,-,N/A,,Partly Cloudy,120,2013-05-18 00:51:00
8:50 PM,68.0,62.6,83,29.94,10.0,SE,5.8,-,N/A,,Scattered Clouds,130,2013-05-18 01:50:00
9:15 PM,68.0,62.6,83,29.94,10.0,Calm,Calm,-,N/A,,Overcast,0,2013-05-18 02:15:00
9:35 PM,68.0,62.6,83,29.95,10.0,Calm,Calm,-,N/A,,Overcast,0,2013-05-18 02:35:00
9:55 PM,68.0,62.6,83,29.96,10.0,SE,5.8,-,N/A,,Overcast,130,2013-05-18 02:55:00
10:15 PM,68.0,62.6,83,29.96,10.0,Calm,Calm,-,N/A,,Overcast,0,2013-05-18 03:15:00
10:35 PM,68.0,60.8,78,29.96,10.0,Calm,Calm,-,N/A,,Overcast,0,2013-05-18 03:35:00
10:55 PM,68.0,60.8,78,29.97,10.0,SE,4.6,-,N/A,,Mostly Cloudy,140,2013-05-18 03:55:00
11:15 PM,68.0,60.8,78,29.97,10.0,SSE,3.5,-,N/A,,Mostly Cloudy,150,2013-05-18 04:15:00
11:35 PM,68.0,60.8,78,29.97,10.0,SSE,6.9,-,N/A,,Overcast,150,2013-05-18 04:35:00
11:55 PM,66.2,60.8,83,29.97,10.0,SSE,6.9,-,N/A,,Overcast,150,2013-05-18 04:55:00